Regional Weather Roundup
Issued by NWS Burlington, VT

Current Version | Previous Version | Graphics & Text | Print | Product List | Glossary Off
Versions: 1 2 3 4 5 6 7 8 9 10 11 12 13 14 15 16 17 18 19 20 21 22 23 24 25 26 27 28 29 30 31 32 33 34 35 36 37 38 39 40 41 42 43 44 45 46 47 48 49 50

000
ASUS41 KBTV 040610
RWRBTV
VERMONT REGIONAL WEATHER ROUNDUP
NATIONAL WEATHER SERVICE BURLINGTON VT
200 AM EDT WED MAY 04 2016

NOTE: "FAIR" INDICATES FEW OR NO CLOUDS BELOW 12,000 FEET WITH NO
SIGNIFICANT WEATHER AND/OR OBSTRUCTIONS TO VISIBILITY.

* THESE REPORTS ARE NOT UNDER NWS QUALITY CONTROL AND/OR DO NOT
  REPORT WEATHER SUCH AS PRECIPITATION AND FOG.

VTZ001>019-040700-
_____VERMONT_____


CITY           SKY/WX    TMP DP  RH WIND       PRES   REMARKS
BURLINGTON     CLOUDY    43  38  82 CALM      29.81F
6HR MIN TEMP:  42; 6HR MAX TEMP:  50;

MONTPELIER     MOCLDY    38  37  97 CALM      29.86F
6HR MIN TEMP:  36; 6HR MAX TEMP:  40;

MORRISVILLE    CLOUDY    36  35  96 CALM      29.85F
6HR MIN TEMP:  34; 6HR MAX TEMP:  46;

ST. JOHNSBURY*   N/A     42  38  85 MISG      29.83F
6HR MIN TEMP:  42; 6HR MAX TEMP:  48;

LYNDONVILLE*   CLOUDY    39  37  94 CALM      29.85S
6HR MIN TEMP:  38; 6HR MAX TEMP:  44;

MIDDLEBURY*    CLOUDY    43  43 100 CALM      29.81F
6HR MIN TEMP:  42; 6HR MAX TEMP:  48;

RUTLAND*       CLOUDY    47  39  74 S7        29.83F
6HR MIN TEMP:  47; 6HR MAX TEMP:  50; 6HR PCP: TRACE;

SPRINGFIELD    CLOUDY    45  40  82 CALM      29.84F
6HR MIN TEMP:  45; 6HR MAX TEMP:  50; 6HR PCP: TRACE;

HIGHGATE*      FAIR      37  35  92 CALM      29.82F
6HR MIN TEMP:  37; 6HR MAX TEMP:  47;

NEWPORT*       FAIR      35  34  99 CALM      29.84F
6HR MIN TEMP:  34; 6HR MAX TEMP:  44;

BENNINGTON     CLOUDY    47  46  97 CALM      29.80F
6HR MIN TEMP:  47; 6HR MAX TEMP:  52; 6HR PCP:  0.06;

SUTTON*          N/A     37 N/A N/A MISG        N/A

_____LAKE CHAMPLAIN_____


CITY           SKY/WX    TMP DP  RH WIND       PRES   REMARKS
COLCHESTER RF*   N/A     41  39  93 NW5         N/A
DIAMOND ISL*     N/A     45  43  93 SW3         N/A

$$

NYZ007-026>031-035-052-083-087-040700-
_____NORTHERN NEW YORK_____


CITY           SKY/WX    TMP DP  RH WIND       PRES   REMARKS
PLATTSBURGH    CLOUDY    35  34  96 CALM      29.82
6HR MIN TEMP:  34; 6HR MAX TEMP:  46;

SARANAC LAKE   CLOUDY    39  35  86 CALM      29.77F
6HR MIN TEMP:  39; 6HR MAX TEMP:  46;

MASSENA        CLOUDY    45  38  76 NE9       29.81F
6HR MIN TEMP:  42; 6HR MAX TEMP:  53;

OGDENSBURG*    PTCLDY    46  39  76 NE3       29.78F
POTSDAM*       CLOUDY    46  41  81 E6        29.78
WATERTOWN      CLOUDY    48  43  82 CALM      29.77F
6HR MIN TEMP:  48; 6HR MAX TEMP:  52;

FT DRUM        CLOUDY    49  42  74 NW1       29.76F
6HR MIN TEMP:  49; 6HR MAX TEMP:  55;

ALBANY         DRZL/FOG  49  47  93 CALM      29.81F VSB 1
6HR MIN TEMP:  49; 6HR MAX TEMP:  54; 6HR PCP:  0.03;

GLENS FALLS    CLOUDY    49  40  71 CALM      29.81F
6HR MIN TEMP:  49; 6HR MAX TEMP:  55; 6HR PCP: TRACE;


$$
NHZ002-005-011-040700-
_____NEW HAMPSHIRE_____


CITY           SKY/WX    TMP DP  RH WIND       PRES   REMARKS
LEBANON        CLOUDY    44  41  89 CALM      29.83F
6HR MIN TEMP:  40; 6HR MAX TEMP:  48;

KEENE          MOCLDY    46  45  93 CALM      29.85F
6HR MIN TEMP:  46; 6HR MAX TEMP:  52; 6HR PCP:  0.01;

MT WASHINGTON  MOCLDY    28  18  64 W10         N/A  WCI  19
6HR MIN TEMP:  28; 6HR MAX TEMP:  35;

PLYMOUTH       CLOUDY    44  43  97 CALM      29.85F
6HR MIN TEMP:  44; 6HR MAX TEMP:  50;

WHITEFIELD     CLOUDY    41  38  89 CALM      29.83F
6HR MIN TEMP:  41; 6HR MAX TEMP:  47;


$$

_____REGIONAL QUEBEC LOCATIONS_____


CITY           SKY/WX    TMP DP  RH WIND       PRES   REMARKS
MONTREAL       CLEAR     41  34  75 NE7       29.84S
QUEBEC CITY    MOCLDY    39  37  93 E5        29.91S
SHERBROOKE     CLOUDY    41  39  93 NE5       29.84F

_____REGIONAL ONTARIO LOCATIONS_____


CITY           SKY/WX    TMP DP  RH WIND       PRES   REMARKS
OTTAWA         CLEAR     39  36  87 NE8       29.82S

______KEY______
VSB  - VISIBILITY IN MILES
WCI  - WIND CHILL INDEX
HX   - HEAT INDEX
$$
NNNN



USA.gov is the U.S. government's official web portal to all federal, state and local government web resources and services.